Location: Cahas Mountain Overlook
(37.0833°N, 80.1000°W)
Time: 19:32:12
(UTC-04:00)

Tiros 1 - Pass Details

Date: 17 February 2026
Orbit: 618 x 649 km, 48.4° (Epoch: 13 March)

Event Time Altitude Azimuth Distance (km) Brightness Sun altitude
Rises 16:20:08 0° 293° (WNW) 2,883 11.0 18.0°
Reaches altitude 10° 16:22:49 10° 279° (W) 1,974 10.6 17.5°
Maximum altitude 16:26:22 23° 227° (SW) 1,317 10.8 16.9°
Drops below altitude 10° 16:29:56 10° 175° (S) 1,972 10.0 16.3°
Sets 16:32:36 0° 161° (SSE) 2,878 10.6 15.8°
